This is the latest recevied weather packets stored in our database for station/object IU1OLT-5. If no packets are shown the sender has not sent any weather packets the latest 1 day(s).
| Time | Temp. | Humidity | Pressure | Rain* | Wind** | Luminosity | Snow |
|---|---|---|---|---|---|---|---|
| 1777963369 | 11.67° C | 99% | 1012.2 hPa | 10.92 mm | 2.24 m/s, 35° | 35 W/m² | - |
| 1777962469 | 12.22° C | 99% | 1012.1 hPa | 13.72 mm | 0 m/s | 10 W/m² | - |
| 1777961569 | 12.22° C | 99% | 1012 hPa | 14.99 mm | 4.02 m/s, 230° | 2 W/m² | - |
| 1777960668 | 12.22° C | 99% | 1011.2 hPa | 4.83 mm | 1.79 m/s, 10° | 5 W/m² | - |
| 1777959768 | 12.22° C | 99% | 1010.9 hPa | 1.78 mm | 1.79 m/s, 88° | 5 W/m² | - |
| 1777958867 | 11.67° C | 99% | 1010.7 hPa | 3.05 mm | 3.13 m/s, 28° | 2 W/m² | - |
| 1777957967 | 11.67° C | 99% | 1010.8 hPa | 4.32 mm | 1.79 m/s, 71° | 2 W/m² | - |
| 1777957067 | 11.67° C | 99% | 1011 hPa | 8.89 mm | 1.79 m/s, 240° | 3 W/m² | - |
| 1777956166 | 11.67° C | 99% | 1011.4 hPa | 1.78 mm | 1.34 m/s, 341° | 3 W/m² | - |
| 1777955266 | 11.67° C | 99% | 1011.9 hPa | 6.1 mm | 0.89 m/s, 83° | 1 W/m² | - |
| 1777954365 | 11.67° C | 99% | 1011.9 hPa | 3.05 mm | 1.34 m/s, 21° | 0 W/m² | - |
| 1777953465 | 11.67° C | 99% | 1011.7 hPa | 1.27 mm | 2.68 m/s, 64° | 0 W/m² | - |
| 1777952565 | 11.67° C | 99% | 1011.8 hPa | 6.6 mm | 1.79 m/s, 88° | 0 W/m² | - |
| 1777951664 | 11.67° C | 99% | 1012.2 hPa | 0 mm | 2.24 m/s, 45° | 0 W/m² | - |
| 1777950764 | 11.67° C | 99% | 1012.4 hPa | 0 mm | 2.68 m/s, 12° | 0 W/m² | - |
| 1777949864 | 11.67° C | 99% | 1012.5 hPa | 3.05 mm | 0.89 m/s, 313° | 0 W/m² | - |
| 1777948963 | 11.67° C | 98% | 1012.9 hPa | 4.32 mm | 1.79 m/s, 74° | 0 W/m² | - |
| 1777948063 | 12.22° C | 98% | 1013.1 hPa | 7.87 mm | 0 m/s | 0 W/m² | - |
| 1777947162 | 12.22° C | 96% | 1013.4 hPa | 3.05 mm | 0.89 m/s, 328° | 0 W/m² | - |
| 1777946262 | 12.22° C | 94% | 1013.3 hPa | 1.27 mm | 1.34 m/s, 332° | 0 W/m² | - |
| 1777945362 | 12.78° C | 92% | 1013.6 hPa | 1.78 mm | 1.34 m/s, 41° | 0 W/m² | - |
* Rain latest hour (hover to see other rain measurements)
** Current wind speed in m/s (hover to see current wind gust speed)